Flag for Pakistan Weather past 2 weeks in Islamabad, Pakistan

Now
45 °F

Fog.


Feels Like: 45 °F
Forecast: 44 / 52 °F
Wind: No wind

Location: Islamabad Airport

Current Time: Mar 4, 2015 at 7:54:37 AM

Latest Report: Mar 4, 2015 at 7:00 AM


Visibility: 1 mi

Pressure: 29.98 "Hg

Humidity: 100%

Dew point: 45 °F

Location of IslamabadLocation

Historic Weather in Islamabad — Graph

°F

Islamabad temperature yesterday

Maximum temperature yesterday: 59 °F (at 1:00 PM)
Minimum temperature yesterday: 50 °F (at 11:00 PM)
Average temperature yesterday: 54 °F

Past Weeks' High & Low Weather Summary

 TemperatureHumidityPressure
High77 °F (Feb 22, 2:00 PM)100% (Feb 22, 7:00 AM)30.15 "Hg (Feb 22, 7:00 AM)
Low45 °F (Mar 4, 7:00 AM)35% (Feb 27, 4:00 PM)29.68 "Hg (Feb 25, 5:00 AM)
Average58 °F76%29.98 "Hg
* Reported Feb 17 7:00 AM — Mar 4 7:00 AM, Islamabad, Weather by CustomWeather, © 2015

Note: Actual official high and low records may vary slightly from our data, if they occured in-between our weather recording intervals... More about our weather records

Advertising

Islamabad weather history for previous 24 hours

 ConditionsComfort  
Time TempWeatherWind HumidityBarometerVisibility
7:00 AM
Wed, Mar 4
45 °FFog.No wind100%29.98 "Hg1 mi
6:00 AM46 °FFog.No wind93%29.95 "Hg2 mi
5:00 AM46 °FFog.No wind93%29.95 "Hg1 mi
4:00 AM46 °FFog.No wind93%29.95 "Hg2 mi
3:00 AM46 °FFog.No wind93%29.98 "Hg2 mi
2:00 AM48 °FPassing clouds.No wind94%30.01 "HgN/A
1:00 AM48 °FPassing clouds.No wind87%30.01 "HgN/A
12:00 AM50 °FPassing clouds.No wind88%30.01 "HgN/A
11:00 PM
Tue, Mar 3
50 °FCool.5 mph88%30.01 "HgN/A
10:00 PM52 °FCool.5 mph88%30.01 "HgN/A
9:00 PM52 °FPartly cloudy.7 mph88%30.01 "HgN/A
8:00 PM55 °FPartly cloudy.7 mph77%30.01 "Hg4 mi
7:00 PM55 °FPartly cloudy.14 mph77%30.01 "Hg4 mi
6:00 PM55 °FRain. Broken clouds.7 mph88%30.01 "Hg4 mi
5:00 PM57 °FBroken clouds.7 mph77%29.98 "Hg5 mi
4:00 PM57 °FBroken clouds.7 mph82%29.98 "Hg5 mi
3:00 PM55 °FRain. Broken clouds.9 mph88%30.01 "Hg5 mi
2:00 PM57 °FRain. Broken clouds.9 mph77%30.01 "HgN/A
1:00 PM59 °FScattered clouds.7 mph82%30.04 "HgN/A
12:00 PM57 °FBroken clouds.7 mph77%30.07 "HgN/A
11:00 AM57 °FScattered clouds.7 mph77%30.07 "HgN/A
10:00 AM54 °FPartly sunny.5 mph88%30.07 "HgN/A
9:00 AM52 °FPartly sunny.5 mph94%30.07 "HgN/A
8:00 AM52 °FBroken clouds.9 mph94%30.04 "Hg4 mi
Weather by CustomWeather, © 2015

See weather overviewHow to use our weather pages